EW6800 Weather Reports


Display with metric or nautical units.
time (UTC)temp
F
wind
direction
speed
MPH
gust
MPH
rain 1hr
in
rain 24hr
in
rain mn
in
humidity
%
barometer
mb
20260906111044 49 298 6.0 9.0 0.00 0.00 0.00 93 1014.9
20260906110547 49 311 4.0 9.0 0.00 0.00 0.00 93 1014.9
20260906110050 49 314 4.0 9.0 0.00 0.00 0.00 93 1014.8
20260906105544 49 311 3.0 8.0 0.00 0.00 0.00 93 1014.8
20260906105044 49 302 5.0 8.0 0.00 0.00 0.00 93 1014.9
20260906104559 50 303 4.0 8.0 0.00 0.00 0.00 93 1014.7
20260906104045 50 307 4.0 8.0 0.00 0.00 0.00 93 1014.8
20260906103546 50 317 5.0 10.0 0.00 0.00 0.00 93 1014.8
20260906103058 50 303 5.0 10.0 0.00 0.00 0.00 92 1014.8
20260906102545 50 296 8.0 10.0 0.00 0.00 0.00 92 1014.8
20260906102048 50 305 7.0 10.0 0.00 0.00 0.00 92 1014.8
20260906101552 50 302 6.0 9.0 0.00 0.00 0.00 91 1015.0
20260906101044 50 313 6.0 9.0 0.00 0.00 0.00 91 1015.0
20260906100544 51 311 6.0 9.0 0.00 0.00 0.00 90 1014.9
20260906100233 51 311 7.0 9.0 0.00 0.00 0.00 89 1014.9
20260906095545 51 310 6.0 9.0 0.00 0.00 0.00 88 1014.9
20260906095045 52 312 6.0 9.0 0.00 0.00 0.00 87 1015.0
20260906094557 52 311 5.0 8.0 0.00 0.00 0.00 85 1014.9
20260906094045 53 318 6.0 8.0 0.00 0.00 0.00 80 1014.8
20260906093545 54 309 5.0 7.0 0.00 0.00 0.00 76 1014.9
20260906093058 55 306 4.0 6.0 0.00 0.00 0.00 68 1014.9
20260906092547 56 318 3.0 6.0 0.00 0.00 0.00 61 1015.0
20260906092046 57 319 4.0 6.0 0.00 0.00 0.00 57 1015.0
20260906091600 57 317 4.0 7.0 0.00 0.00 0.00 57 1014.9
20260906091047 57 313 4.0 8.0 0.00 0.00 0.00 57 1015.1
20260906090543 56 317 5.0 8.0 0.00 0.00 0.00 57 1015.0
20260906090057 56 322 4.0 8.0 0.00 0.00 0.00 59 1015.0
20260906085543 56 326 4.0 8.0 0.00 0.00 0.00 60 1015.1
20260906085044 56 321 4.0 8.0 0.00 0.00 0.00 62 1015.1
20260906084558 56 314 5.0 8.0 0.00 0.00 0.00 60 1015.0
20260906084048 56 311 5.0 7.0 0.00 0.00 0.00 59 1015.1
20260906083544 56 311 4.0 7.0 0.00 0.00 0.00 61 1015.1
20260906083055 56 314 4.0 7.0 0.00 0.00 0.00 60 1015.2
20260906082544 55 316 4.0 7.0 0.00 0.00 0.00 62 1015.2
20260906082049 55 321 3.0 5.0 0.00 0.00 0.00 65 1015.2
20260906081559 54 321 4.0 5.0 0.00 0.00 0.00 68 1015.2
20260906081044 54 320 4.0 5.0 0.00 0.00 0.00 72 1015.4
20260906080544 54 319 4.0 5.0 0.00 0.00 0.00 73 1015.3
20260906080057 54 319 3.0 5.0 0.00 0.00 0.00 76 1015.3
20260906075545 54 321 3.0 6.0 0.00 0.00 0.00 77 1015.4
20260906075045 55 323 3.0 9.0 0.00 0.00 0.00 75 1015.4
20260906074601 56 323 6.0 9.0 0.00 0.00 0.00 70 1015.4
20260906074044 56 316 4.0 9.0 0.00 0.00 0.00 67 1015.3
20260906073545 56 313 5.0 9.0 0.00 0.00 0.00 66 1015.4
20260906073054 55 316 6.0 9.0 0.00 0.00 0.00 67 1015.3
20260906072545 55 309 5.0 8.0 0.00 0.00 0.00 72 1015.2
20260906072045 55 304 5.0 7.0 0.00 0.00 0.00 73 1015.3
20260906071600 55 314 3.0 5.0 0.00 0.00 0.00 76 1015.3
20260906071047 55 315 4.0 5.0 0.00 0.00 0.00 75 1015.3
20260906070544 55 319 3.0 5.0 0.00 0.00 0.00 74 1015.3
20260906070056 55 317 3.0 8.0 0.00 0.00 0.00 74 1015.3
20260906065544 55 321 4.0 8.0 0.00 0.00 0.00 75 1015.3
20260906065045 54 311 5.0 8.0 0.00 0.00 0.00 75 1015.3
20260906064559 54 319 5.0 8.0 0.00 0.00 0.00 77 1015.3
20260906064044 54 317 4.0 9.0 0.00 0.00 0.00 78 1015.3
20260906063543 54 321 5.0 9.0 0.00 0.00 0.00 78 1015.3
20260906063058 54 312 6.0 9.0 0.00 0.00 0.00 78 1015.4
20260906062548 54 313 5.0 9.0 0.00 0.00 0.00 78 1015.4
20260906062044 54 293 4.0 8.0 0.00 0.00 0.00 78 1015.4
20260906061556 54 314 5.0 8.0 0.00 0.00 0.00 79 1015.3
20260906061044 54 309 4.0 8.0 0.00 0.00 0.00 79 1015.4
20260906060544 54 310 4.0 6.0 0.00 0.00 0.00 79 1015.4
20260906060106 54 322 4.0 8.0 0.00 0.00 0.00 79 1015.4
20260906055545 54 317 5.0 8.0 0.00 0.00 0.00 78 1015.4
20260906055044 54 313 5.0 8.0 0.00 0.00 0.00 78 1015.4
20260906054558 53 311 6.0 8.0 0.00 0.00 0.00 79 1015.5
20260906054045 53 317 5.0 8.0 0.00 0.00 0.00 82 1015.5
20260906053544 53 319 4.0 7.0 0.00 0.00 0.00 84 1015.5
20260906053058 53 317 4.0 6.0 0.00 0.00 0.00 85 1015.6
20260906052602 53 320 4.0 8.0 0.00 0.00 0.00 85 1015.6
20260906052045 53 308 3.0 8.0 0.00 0.00 0.00 85 1015.6
20260906051603 53 315 3.0 6.0 0.00 0.00 0.00 85 1015.6
20260906051044 53 317 2.0 5.0 0.00 0.00 0.00 87 1015.7
20260906050544 53 323 2.0 5.0 0.00 0.00 0.00 86 1015.7
20260906050106 53 323 3.0 5.0 0.00 0.00 0.00 86 1015.6
20260906045547 54 327 2.0 4.0 0.00 0.00 0.00 84 1015.6
20260906045047 53 327 2.0 4.0 0.00 0.00 0.00 83 1015.6
20260906044559 53 327 3.0 5.0 0.00 0.00 0.00 83 1015.6
20260906044045 53 327 2.0 7.0 0.00 0.00 0.00 84 1015.6
20260906043545 54 331 3.0 7.0 0.00 0.00 0.00 84 1015.6
20260906043056 54 318 4.0 7.0 0.00 0.00 0.00 85 1015.6
20260906042545 54 316 4.0 8.0 0.00 0.00 0.00 84 1015.5
20260906042044 54 312 5.0 8.0 0.00 0.00 0.00 82 1015.4
20260906041557 54 315 4.0 8.0 0.00 0.00 0.00 81 1015.4
20260906041044 54 308 4.0 8.0 0.00 0.00 0.00 81 1015.3
20260906040544 54 315 5.0 8.0 0.00 0.00 0.00 81 1015.2
20260906040115 54 319 5.0 9.0 0.00 0.00 0.00 81 1015.3
20260906035543 54 313 5.0 9.0 0.00 0.00 0.00 83 1015.2
20260906035046 54 313 5.0 9.0 0.00 0.00 0.00 82 1015.2
20260906034559 54 303 4.0 9.0 0.00 0.00 0.00 82 1015.2
20260906034044 55 320 5.0 9.0 0.00 0.00 0.00 82 1015.1
20260906033545 55 311 5.0 9.0 0.00 0.00 0.00 81 1015.1
20260906033100 55 313 5.0 9.0 0.00 0.00 0.00 81 1015.0
20260906032546 55 296 5.0 8.0 0.00 0.00 0.00 81 1015.0
20260906032044 55 290 5.0 8.0 0.00 0.00 0.00 80 1014.9
20260906031606 55 298 4.0 8.0 0.00 0.00 0.00 80 1015.0
20260906031044 56 301 4.0 8.0 0.00 0.00 0.00 79 1014.9
20260906030544 56 293 3.0 8.0 0.00 0.00 0.00 79 1014.9
20260906025545 56 300 3.0 7.0 0.00 0.00 0.00 77 1015.0
20260906025044 57 288 3.0 8.0 0.00 0.00 0.00 76 1014.9
20260906024618 57 295 3.0 8.0 0.00 0.00 0.00 76 1014.9
20260906024043 57 300 4.0 8.0 0.00 0.00 0.00 76 1015.0
20260906023545 57 292 4.0 7.0 0.00 0.00 0.00 76 1015.1
20260906023055 58 307 3.0 9.0 0.00 0.00 0.00 75 1015.1
20260906022547 58 298 4.0 9.0 0.00 0.00 0.00 75 1015.1
20260906022044 58 305 5.0 9.0 0.00 0.00 0.00 76 1015.1
20260906021611 58 311 4.0 9.0 0.00 0.00 0.00 76 1015.2
20260906021044 59 299 6.0 9.0 0.00 0.00 0.00 75 1015.2
20260906020544 59 305 6.0 9.0 0.00 0.00 0.00 75 1015.2
20260906020106 59 312 5.0 9.0 0.00 0.00 0.00 75 1015.2
20260906015544 60 298 4.0 8.0 0.00 0.00 0.00 74 1015.1
20260906015048 60 296 3.0 8.0 0.00 0.00 0.00 73 1015.3
20260906014612 60 313 4.0 10.0 0.00 0.00 0.00 73 1015.3
20260906014044 60 302 6.0 10.0 0.00 0.00 0.00 71 1015.2
20260906013544 60 292 5.0 10.0 0.00 0.00 0.00 70 1015.3
20260906013100 61 311 4.0 10.0 0.00 0.00 0.00 69 1015.3
20260906012544 61 301 4.0 9.0 0.00 0.00 0.00 69 1015.2
20260906012046 61 322 4.0 9.0 0.00 0.00 0.00 68 1015.1
20260906011559 61 299 4.0 8.0 0.00 0.00 0.00 69 1015.3
20260906011044 61 295 4.0 9.0 0.00 0.00 0.00 69 1015.3
20260906010543 61 300 4.0 9.0 0.00 0.00 0.00 67 1015.3
20260906010113 61 290 5.0 10.0 0.00 0.00 0.00 67 1015.3
20260906005546 61 284 4.0 10.0 0.00 0.00 0.00 67 1015.1
20260906005044 62 309 5.0 9.0 0.00 0.00 0.00 66 1015.3
20260906004610 62 311 4.0 9.0 0.00 0.00 0.00 65 1015.2
20260906004044 62 305 3.0 10.0 0.00 0.00 0.00 64 1015.3
20260906003544 62 313 5.0 10.0 0.00 0.00 0.00 62 1015.2
20260906003118 63 291 6.0 11.0 0.00 0.00 0.00 61 1015.3
20260906002543 63 317 6.0 11.0 0.00 0.00 0.00 60 1015.2
20260906002046 63 311 6.0 9.0 0.00 0.00 0.00 58 1015.2
20260906001559 64 313 5.0 11.0 0.00 0.00 0.00 57 1015.2
20260906001043 64 296 6.0 13.0 0.00 0.00 0.00 57 1015.2
20260906000545 64 298 7.0 13.0 0.00 0.00 0.00 56 1015.2
20260906000103 64 313 8.0 13.0 0.00 0.00 0.00 56 1015.1
20260905235544 65 299 8.0 12.0 0.00 0.00 0.00 55 1015.1
20260905235044 65 305 6.0 11.0 0.00 0.00 0.00 55 1015.2
20260905234609 65 300 6.0 10.0 0.00 0.00 0.00 55 1015.2
20260905234046 65 307 5.0 10.0 0.00 0.00 0.00 54 1015.2
20260905233544 65 308 4.0 9.0 0.00 0.00 0.00 55 1015.2
20260905233101 65 296 4.0 10.0 0.00 0.00 0.00 56 1015.1
20260905232543 64 321 5.0 12.0 0.00 0.00 0.00 56 1015.2
20260905232045 64 297 6.0 12.0 0.00 0.00 0.00 58 1015.2
20260905231557 64 313 6.0 12.0 0.00 0.00 0.00 58 1015.2
20260905231043 63 312 7.0 11.0 0.00 0.00 0.00 59 1015.3
20260905230546 63 311 6.0 12.0 0.00 0.00 0.00 59 1015.4
20260905230058 63 296 7.0 12.0 0.00 0.00 0.00 59 1015.4
20260905225542 64 299 8.0 11.0 0.00 0.00 0.00 59 1015.4
20260905225043 64 288 7.0 11.0 0.00 0.00 0.00 60 1015.6
20260905224600 64 314 7.0 11.0 0.00 0.00 0.00 58 1015.4
20260905224042 65 303 7.0 11.0 0.00 0.00 0.00 58 1015.4
20260905223542 65 311 7.0 11.0 0.00 0.00 0.00 57 1015.5
20260905223057 66 300 7.0 13.0 0.00 0.00 0.00 56 1015.4
20260905222544 66 338 8.0 13.0 0.00 0.00 0.00 55 1015.5
20260905222043 66 311 7.0 12.0 0.00 0.00 0.00 55 1015.4
20260905221605 66 309 5.0 10.0 0.00 0.00 0.00 56 1015.4
20260905221045 66 317 6.0 9.0 0.00 0.00 0.00 57 1015.4
20260905220544 67 311 5.0 10.0 0.00 0.00 0.00 57 1015.4
20260905220106 67 300 5.0 10.0 0.00 0.00 0.00 58 1015.4
20260905215543 67 315 5.0 10.0 0.00 0.00 0.00 58 1015.5
20260905215047 67 313 6.0 11.0 0.00 0.00 0.00 57 1015.6
20260905214557 68 304 7.0 11.0 0.00 0.00 0.00 56 1015.5
20260905214042 68 319 6.0 10.0 0.00 0.00 0.00 54 1015.5
20260905213546 69 313 6.0 10.0 0.00 0.00 0.00 53 1015.5
20260905213058 69 323 5.0 10.0 0.00 0.00 0.00 52 1015.5
20260905212543 69 303 3.0 7.0 0.00 0.00 0.00 52 1015.6
20260905212043 69 308 3.0 8.0 0.00 0.00 0.00 51 1015.5
20260905211551 69 290 4.0 8.0 0.00 0.00 0.00 50 1015.6
20260905211043 69 311 4.0 7.0 0.00 0.00 0.00 52 1015.5
20260905210546 69 319 3.0 8.0 0.00 0.00 0.00 51 1015.6
20260905210103 69 294 4.0 8.0 0.00 0.00 0.00 49 1015.6
20260905205544 70 292 3.0 8.0 0.00 0.00 0.00 49 1015.6
20260905205044 70 312 3.0 8.0 0.00 0.00 0.00 47 1015.6
20260905204602 70 311 3.0 9.0 0.00 0.00 0.00 48 1015.6
20260905204045 70 319 4.0 9.0 0.00 0.00 0.00 47 1015.6
20260905203542 70 291 4.0 9.0 0.00 0.00 0.00 48 1015.6
20260905203057 70 323 3.0 8.0 0.00 0.00 0.00 48 1015.6
20260905202544 69 328 4.0 8.0 0.00 0.00 0.00 47 1015.6
20260905202043 69 298 3.0 7.0 0.00 0.00 0.00 50 1015.6
20260905201553 69 320 3.0 8.0 0.00 0.00 0.00 51 1015.6
20260905201044 69 309 4.0 8.0 0.00 0.00 0.00 50 1015.7
20260905200543 69 297 2.0 7.0 0.00 0.00 0.00 50 1015.7
20260905200104 69 311 3.0 7.0 0.00 0.00 0.00 51 1015.7
20260905195542 69 304 3.0 7.0 0.00 0.00 0.00 51 1015.8
20260905195043 70 315 4.0 7.0 0.00 0.00 0.00 49 1015.9
20260905194557 70 317 3.0 7.0 0.00 0.00 0.00 51 1015.8
20260905194044 69 317 2.0 8.0 0.00 0.00 0.00 51 1016.0
20260905193543 69 300 2.0 8.0 0.00 0.00 0.00 51 1016.0
20260905193107 69 334 2.0 8.0 0.00 0.00 0.00 51 1016.1
20260905192543 69 331 2.0 5.0 0.00 0.00 0.00 49 1016.1
20260905192044 69 310 1.0 6.0 0.00 0.00 0.00 50 1016.1
20260905191558 68 302 1.0 7.0 0.00 0.00 0.00 51 1016.2
20260905191045 68 221 2.0 7.0 0.00 0.00 0.00 50 1016.2
20260905190542 68 314 1.0 7.0 0.00 0.00 0.00 50 1016.2
20260905190103 68 313 3.0 7.0 0.00 0.00 0.00 49 1016.2
20260905185544 68 320 2.0 5.0 0.00 0.00 0.00 49 1016.3
20260905185046 68 319 2.0 5.0 0.00 0.00 0.00 49 1016.2
20260905184558 68 319 2.0 5.0 0.00 0.00 0.00 47 1016.3
20260905184044 68 349 1.0 5.0 0.00 0.00 0.00 47 1016.1
20260905183546 68 326 2.0 4.0 0.00 0.00 0.00 45 1016.2
20260905183059 68 294 1.0 4.0 0.00 0.00 0.00 43 1016.1
20260905182544 67 232 1.0 4.0 0.00 0.00 0.00 43 1016.1
20260905182045 67 300 2.0 4.0 0.00 0.00 0.00 44 1016.0
20260905181605 66 318 1.0 4.0 0.00 0.00 0.00 45 1016.1
20260905181045 66 0 2.0 4.0 0.00 0.00 0.00 47 1016.0
20260905180545 66 342 1.0 4.0 0.00 0.00 0.00 49 1016.0
20260905180051 66 311 1.0 4.0 0.00 0.00 0.00 48 1016.0
20260905175545 65 309 1.0 4.0 0.00 0.00 0.00 50 1016.0
20260905175045 65 285 1.0 4.0 0.00 0.00 0.00 51 1015.9
20260905174557 65 238 1.0 3.0 0.00 0.00 0.00 49 1015.9
20260905174046 65 271 1.0 3.0 0.00 0.00 0.00 49 1015.9
20260905173545 65 142 1.0 2.0 0.00 0.00 0.00 49 1015.9
20260905173052 64 0 0.0 2.0 0.00 0.00 0.00 49 1015.8
20260905172545 64 0 0.0 2.0 0.00 0.00 0.00 51 1015.8
20260905172045 64 0 0.0 2.0 0.00 0.00 0.00 51 1015.7
20260905171603 64 142 1.0 2.0 0.00 0.00 0.00 51 1015.7
20260905171045 63 142 0.0 5.0 0.00 0.00 0.00 51 1015.7
20260905170545 63 0 1.0 5.0 0.00 0.00 0.00 51 1015.6
20260905170107 63 125 2.0 5.0 0.00 0.00 0.00 46 1015.6
20260905165547 62 150 1.0 5.0 0.00 0.00 0.00 54 1015.6
20260905165044 62 147 2.0 5.0 0.00 0.00 0.00 54 1015.4
20260905164559 61 153 3.0 5.0 0.00 0.00 0.00 56 1015.5
20260905164045 61 154 1.0 4.0 0.00 0.00 0.00 55 1015.4
20260905163544 60 0 0.0 3.0 0.00 0.00 0.00 52 1015.5
20260905163052 60 0 0.0 3.0 0.00 0.00 0.00 53 1015.4
20260905162547 60 333 1.0 3.0 0.00 0.00 0.00 53 1015.5
20260905162045 60 333 1.0 2.0 0.00 0.00 0.00 53 1015.5
20260905161550 60 160 1.0 2.0 0.00 0.00 0.00 52 1015.6
20260905161045 61 160 1.0 2.0 0.00 0.00 0.00 51 1015.6
20260905160545 61 160 1.0 2.0 0.00 0.00 0.00 47 1015.4
20260905160101 61 160 0.0 3.0 0.00 0.00 0.00 47 1015.5
20260905155545 61 0 0.0 4.0 0.00 0.00 0.00 46 1015.4
20260905155046 61 160 1.0 4.0 0.00 0.00 0.00 44 1015.4
20260905154600 61 160 1.0 4.0 0.00 0.00 0.00 44 1015.3
20260905154045 61 160 2.0 5.0 0.00 0.00 0.00 43 1015.3
20260905153548 61 167 2.0 5.0 0.00 0.00 0.00 44 1015.2
20260905153053 60 158 1.0 5.0 0.00 0.00 0.00 44 1015.3
20260905152545 60 158 2.0 5.0 0.00 0.00 0.00 45 1015.2
20260905152046 60 161 3.0 5.0 0.00 0.00 0.00 45 1015.2
20260905151603 60 161 0.0 2.0 0.00 0.00 0.00 47 1015.0
20260905151045 59 161 1.0 2.0 0.00 0.00 0.00 47 1015.1
20260905150544 59 161 1.0 4.0 0.00 0.00 0.00 50 1015.1
20260905150100 59 161 1.0 4.0 0.00 0.00 0.00 50 1015.1
20260905145545 59 161 1.0 4.0 0.00 0.00 0.00 50 1015.1
20260905145044 59 161 1.0 4.0 0.00 0.00 0.00 50 1015.0
20260905144554 58 161 0.0 4.0 0.00 0.00 0.00 51 1015.0
20260905144049 58 161 2.0 4.0 0.00 0.00 0.00 50 1015.0
20260905143545 58 162 0.0 0.0 0.00 0.00 0.00 48 1015.0
20260905143056 57 0 0.0 0.0 0.00 0.00 0.00 50 1015.0
20260905142545 57 0 0.0 0.0 0.00 0.00 0.00 52 1015.1
20260905142045 57 0 0.0 0.0 0.00 0.00 0.00 51 1015.0
20260905141602 57 0 0.0 0.0 0.00 0.00 0.00 52 1015.0
20260905141048 57 0 0.0 0.0 0.00 0.00 0.00 54 1015.0
20260905140545 57 0 0.0 0.0 0.00 0.00 0.00 54 1014.9
20260905140058 56 0 0.0 0.0 0.00 0.00 0.00 54 1014.9
20260905135546 56 0 0.0 0.0 0.00 0.00 0.00 54 1014.8
20260905135049 56 0 0.0 0.0 0.00 0.00 0.00 54 1014.8
20260905134558 56 0 0.0 0.0 0.00 0.00 0.00 54 1014.7
20260905134045 56 0 0.0 0.0 0.00 0.00 0.00 56 1014.7
20260905133545 55 0 0.0 0.0 0.00 0.00 0.00 57 1014.7
20260905133052 55 0 0.0 0.0 0.00 0.00 0.00 57 1014.7
20260905132548 55 0 0.0 0.0 0.00 0.00 0.00 57 1014.6
20260905132046 55 0 0.0 0.0 0.00 0.00 0.00 57 1014.7
20260905131605 55 0 0.0 0.0 0.00 0.00 0.00 57 1014.6
20260905131045 55 0 0.0 0.0 0.00 0.00 0.00 58 1014.7
20260905130545 55 0 0.0 0.0 0.00 0.00 0.00 58 1014.7
20260905130059 55 0 0.0 0.0 0.00 0.00 0.00 58 1014.7
20260905125544 55 0 0.0 0.0 0.00 0.00 0.00 60 1014.7
20260905125044 56 0 0.0 0.0 0.00 0.00 0.00 58 1014.7
20260905124555 56 0 0.0 0.0 0.00 0.00 0.00 60 1014.8
20260905124044 56 0 0.0 0.0 0.00 0.00 0.00 58 1014.7
20260905123545 56 0 0.0 0.0 0.00 0.00 0.00 58 1014.9
20260905123108 56 0 0.0 2.0 0.00 0.00 0.00 58 1014.8
20260905122545 56 0 0.0 2.0 0.00 0.00 0.00 58 1014.8
20260905122047 56 0 0.0 2.0 0.00 0.00 0.00 58 1014.8
20260905121559 56 0 0.0 3.0 0.00 0.00 0.00 58 1014.7
20260905121045 56 328 1.0 3.0 0.00 0.00 0.00 58 1014.7
20260905120549 56 328 1.0 3.0 0.00 0.00 0.00 59 1014.7
20260905115544 56 328 1.0 3.0 0.00 0.01 0.00 57 1014.7
20260905115044 57 328 1.0 4.0 0.00 0.01 0.00 56 1014.6
20260905114555 57 328 2.0 5.0 0.00 0.01 0.00 55 1014.6
20260905114044 57 328 2.0 5.0 0.00 0.01 0.00 54 1014.5
20260905113544 57 328 2.0 5.0 0.00 0.01 0.00 53 1014.5
20260905113100 57 328 3.0 5.0 0.00 0.01 0.00 52 1014.4
20260905112545 57 317 3.0 5.0 0.00 0.01 0.00 51 1014.5
20260905112044 57 315 3.0 6.0 0.00 0.01 0.00 51 1014.5
20260905111645 57 316 3.0 7.0 0.00 0.01 0.00 51 1014.4